timestamp,surface_pressure_avg,surface_temp_avg,battery_voltage,lat,long
2021-11-29 00:09:00+00:00,230.4648,8.7,12.73,47.84626,-54.09684
2021-11-29 00:19:00+00:00,232.8631,8.7,12.73,47.84626,-54.09684
2021-11-29 00:29:00+00:00,234.2848,8.68,12.73,47.84626,-54.09684
2021-11-29 00:39:00+00:00,230.9314,8.64,12.73,47.84626,-54.09684
2021-11-29 00:49:00+00:00,229.6431,8.68,12.73,47.84626,-54.09684
2021-11-29 00:59:00+00:00,231.1865,8.7,12.73,47.84626,-54.09684
2021-11-29 01:09:00+00:00,229.0098,8.7,12.73,47.84626,-54.09684
2021-11-29 01:19:00+00:00,226.0448,8.7,12.73,47.84626,-54.09684
2021-11-29 01:29:00+00:00,226.0748,8.7,12.73,47.84626,-54.09684
2021-11-29 01:39:00+00:00,225.2664,8.7,12.73,47.84626,-54.09684
2021-11-29 01:49:00+00:00,225.9064,8.7,12.73,47.84626,-54.09684
2021-11-29 01:59:00+00:00,229.4281,8.7,12.73,47.84626,-54.09684
2021-11-29 02:09:00+00:00,231.9498,8.7,12.73,47.84626,-54.09684
2021-11-29 02:19:00+00:00,229.7781,8.7,12.73,47.84626,-54.09684
2021-11-29 02:29:00+00:00,226.6448,8.7,12.73,47.84626,-54.09684
2021-11-29 02:39:00+00:00,230.5247,8.7,12.73,47.84626,-54.09684
2021-11-29 02:49:00+00:00,235.3564,8.7,12.73,47.84626,-54.09684
2021-11-29 02:59:00+00:00,233.3731,8.7,12.73,47.84626,-54.09684
2021-11-29 03:09:00+00:00,237.9847,8.7,12.73,47.84626,-54.09684
2021-11-29 03:19:01+00:00,243.9064,8.7,12.73,47.84626,-54.09684
2021-11-29 03:29:01+00:00,249.5431,8.7,12.73,47.84626,-54.09684
2021-11-29 03:39:01+00:00,252.778,8.7,12.73,47.84626,-54.09684
2021-11-29 03:49:01+00:00,266.4714,8.7,12.73,47.84626,-54.09684
2021-11-29 03:59:01+00:00,270.8797,8.7,12.73,47.84626,-54.09684
2021-11-29 04:09:01+00:00,273.8981,8.7,12.73,47.84626,-54.09684
2021-11-29 04:19:01+00:00,277.738,8.7,12.73,47.84626,-54.09684
2021-11-29 04:29:01+00:00,289.488,8.7,12.73,47.84626,-54.09684
2021-11-29 04:39:01+00:00,287.8997,8.7,12.73,47.84626,-54.09684
2021-11-29 04:49:01+00:00,293.2563,8.7,12.73,47.84626,-54.09684
2021-11-29 04:59:01+00:00,299.8563,8.7,12.73,47.84626,-54.09684
2021-11-29 05:09:01+00:00,307.7664,8.7,12.73,47.84626,-54.09684
2021-11-29 05:19:00+00:00,303.6396,8.7,12.65,47.84626,-54.09684
2021-11-29 05:29:00+00:00,305.678,8.7,12.65,47.84626,-54.09684
2021-11-29 05:39:00+00:00,313.8247,8.68,12.65,47.84626,-54.09684
2021-11-29 05:49:00+00:00,320.2697,8.6,12.65,47.84626,-54.09684
2021-11-29 05:59:00+00:00,312.158,8.6,12.65,47.84626,-54.09684
2021-11-29 06:09:00+00:00,311.9113,8.6,12.65,47.84626,-54.09684
2021-11-29 06:19:00+00:00,318.9047,8.6,12.65,47.84626,-54.09684
2021-11-29 06:29:00+00:00,321.6013,8.6,12.65,47.84626,-54.09684
2021-11-29 06:39:00+00:00,317.168,8.6,12.65,47.84626,-54.09684
2021-11-29 06:49:00+00:00,320.798,8.58,12.65,47.84626,-54.09684
2021-11-29 06:59:00+00:00,323.793,8.5,12.65,47.84626,-54.09684
2021-11-29 07:09:00+00:00,321.1113,8.5,12.65,47.84626,-54.09684
2021-11-29 07:19:01+00:00,319.283,8.5,12.65,47.84626,-54.09684
2021-11-29 07:29:01+00:00,319.5296,8.5,12.65,47.84626,-54.09684
2021-11-29 07:39:01+00:00,319.4479,8.52,12.65,47.84626,-54.09684
2021-11-29 07:49:01+00:00,317.1514,8.6,12.65,47.84626,-54.09684
2021-11-29 07:59:01+00:00,314.418,8.67,12.65,47.84626,-54.09684
2021-11-29 08:09:01+00:00,312.0179,8.7,12.65,47.84626,-54.09684
2021-11-29 08:19:00+00:00,312.7564,8.69,12.65,47.84626,-54.09684
2021-11-29 08:29:00+00:00,311.3613,8.6,12.65,47.84626,-54.09684
2021-11-29 08:39:00+00:00,308.08299999999997,8.4,12.65,47.84626,-54.09684
2021-11-29 08:49:00+00:00,305.1313,8.31,12.65,47.84626,-54.09684
2021-11-29 08:59:00+00:00,300.58799999999997,8.3,12.65,47.84626,-54.09684
2021-11-29 09:09:00+00:00,291.778,8.37,12.65,47.84626,-54.09684
2021-11-29 09:19:00+00:00,284.918,8.4,12.65,47.84626,-54.09684
2021-11-29 09:29:00+00:00,280.7113,8.44,12.65,47.84626,-54.09684
2021-11-29 09:39:00+00:00,273.6113,8.48,12.65,47.84626,-54.09684
2021-11-29 09:49:00+00:00,266.2964,8.49,12.65,47.84626,-54.09684
2021-11-29 09:59:00+00:00,265.3531,8.47,12.65,47.84626,-54.09684
2021-11-29 10:09:00+00:00,261.8831,8.4,12.65,47.84626,-54.09684
2021-11-29 10:19:01+00:00,253.0515,8.4,12.65,47.84626,-54.09684
2021-11-29 10:29:01+00:00,248.4198,8.4,12.65,47.84626,-54.09684
2021-11-29 10:39:01+00:00,248.2047,8.4,12.65,47.84626,-54.09684
2021-11-29 10:49:01+00:00,243.6365,8.4,12.65,47.84626,-54.09684
2021-11-29 10:59:01+00:00,236.9614,8.3,12.65,47.84626,-54.09684
2021-11-29 11:09:01+00:00,236.7481,8.3,12.65,47.84626,-54.09684
2021-11-29 11:19:00+00:00,234.6514,8.3,12.65,47.84626,-54.09684
2021-11-29 11:29:00+00:00,230.2598,8.3,12.65,47.84626,-54.09684
2021-11-29 11:39:00+00:00,229.4331,8.3,12.65,47.84626,-54.09684
2021-11-29 11:49:00+00:00,229.9614,8.3,12.65,47.84626,-54.09684
2021-11-29 11:59:00+00:00,230.3814,8.3,12.65,47.84626,-54.09684
2021-11-29 12:09:00+00:00,232.9081,8.32,12.65,47.84626,-54.09684
2021-11-29 12:19:00+00:00,233.4698,8.39,14.24,47.84626,-54.09684
2021-11-29 12:29:00+00:00,228.6347,8.4,14.24,47.84626,-54.09684
2021-11-29 12:39:00+00:00,224.1681,8.4,14.24,47.84626,-54.09684
2021-11-29 12:49:00+00:00,227.3014,8.4,14.24,47.84626,-54.09684
2021-11-29 12:59:00+00:00,226.3865,8.4,14.24,47.84626,-54.09684
2021-11-29 13:09:00+00:00,223.9198,8.4,14.24,47.84626,-54.09684
2021-11-29 13:19:01+00:00,221.0714,8.4,14.64,47.84626,-54.09684
2021-11-29 13:29:01+00:00,220.273,8.4,14.64,47.84626,-54.09684
2021-11-29 13:39:01+00:00,222.9648,8.4,14.64,47.84626,-54.09684
2021-11-29 13:49:01+00:00,227.5564,8.4,14.64,47.84626,-54.09684
2021-11-29 13:59:01+00:00,226.9264,8.4,14.64,47.84626,-54.09684
2021-11-29 14:09:01+00:00,227.8248,8.4,14.64,47.84626,-54.09684
2021-11-29 14:19:00+00:00,232.3064,8.4,14.64,47.84626,-54.09684
2021-11-29 14:29:00+00:00,234.2931,8.4,14.64,47.84626,-54.09684
2021-11-29 14:39:00+00:00,233.2498,8.4,14.64,47.84626,-54.09684
2021-11-29 14:49:00+00:00,232.2014,8.4,14.64,47.84626,-54.09684
2021-11-29 14:59:00+00:00,231.0915,8.4,14.64,47.84626,-54.09684
2021-11-29 15:09:00+00:00,237.1865,8.41,14.64,47.84626,-54.09684
2021-11-29 15:19:00+00:00,242.7431,8.43,14.56,47.84626,-54.09684
2021-11-29 15:29:00+00:00,245.8597,8.44,14.56,47.84626,-54.09684
2021-11-29 15:39:00+00:00,247.0931,8.43,14.56,47.84626,-54.09684
2021-11-29 15:49:00+00:00,249.1281,8.44,14.56,47.84626,-54.09684
2021-11-29 15:59:00+00:00,246.4048,8.47,14.56,47.84626,-54.09684
2021-11-29 16:09:00+00:00,249.2981,8.48,14.56,47.84626,-54.09684
2021-11-29 16:19:00+00:00,258.1447,8.49,14.08,47.84626,-54.09684
2021-11-29 16:29:00+00:00,269.9147,8.49,14.08,47.84626,-54.09684
2021-11-29 16:39:00+00:00,271.5748,8.49,14.08,47.84626,-54.09684
2021-11-29 16:49:00+00:00,270.1131,8.48,14.08,47.84626,-54.09684
2021-11-29 16:59:00+00:00,273.9714,8.47,14.08,47.84626,-54.09684
2021-11-29 17:09:00+00:00,285.6398,8.47,14.08,47.84626,-54.09684
2021-11-29 17:19:00+00:00,288.5214,8.48,14.24,47.84626,-54.09684
2021-11-29 17:29:00+00:00,293.713,8.48,14.24,47.84626,-54.09684
2021-11-29 17:39:00+00:00,297.4664,8.48,14.24,47.84626,-54.09684
2021-11-29 17:49:00+00:00,304.1497,8.48,14.24,47.84626,-54.09684
2021-11-29 17:59:00+00:00,304.123,8.49,14.24,47.84626,-54.09684
2021-11-29 18:09:00+00:00,309.163,8.49,14.24,47.84626,-54.09684
2021-11-29 18:19:00+00:00,314.6946,8.5,14.16,47.84626,-54.09684
2021-11-29 18:29:00+00:00,318.3947,8.49,14.16,47.84626,-54.09684
2021-11-29 18:39:00+00:00,318.7746,8.47,14.16,47.84626,-54.09684
2021-11-29 18:49:00+00:00,320.2531,8.43,14.16,47.84626,-54.09684
2021-11-29 18:59:00+00:00,317.0214,8.4,14.16,47.84626,-54.09684
2021-11-29 19:09:00+00:00,321.683,8.4,14.16,47.84626,-54.09684
2021-11-29 19:19:01+00:00,326.9929,8.4,13.68,47.84626,-54.09684
2021-11-29 19:29:01+00:00,327.983,8.4,13.68,47.84626,-54.09684
2021-11-29 19:39:01+00:00,324.9163,8.39,13.68,47.84626,-54.09684
2021-11-29 19:49:01+00:00,326.703,8.31,13.68,47.84626,-54.09684
2021-11-29 19:59:01+00:00,332.2047,8.3,13.68,47.84626,-54.09684
2021-11-29 20:09:01+00:00,327.8546,8.3,13.68,47.84626,-54.09684
2021-11-29 20:19:00+00:00,324.7196,8.27,13.29,47.84626,-54.09684
2021-11-29 20:29:00+00:00,328.1113,8.26,13.29,47.84626,-54.09684
2021-11-29 20:39:00+00:00,327.2797,8.22,13.29,47.84626,-54.09684
2021-11-29 20:49:00+00:00,317.2147,8.2,13.29,47.84626,-54.09684
2021-11-29 20:59:00+00:00,309.58799999999997,8.2,13.29,47.84626,-54.09684
2021-11-29 21:09:00+00:00,310.7364,8.2,13.29,47.84626,-54.09684
2021-11-29 21:19:00+00:00,309.0181,8.2,12.89,47.84626,-54.09684
2021-11-29 21:29:00+00:00,303.6346,8.2,12.89,47.84626,-54.09684
2021-11-29 21:39:00+00:00,305.3297,8.2,12.89,47.84626,-54.09684
2021-11-29 21:49:00+00:00,298.0181,8.2,12.89,47.84626,-54.09684
2021-11-29 21:59:00+00:00,284.3797,8.2,12.89,47.84626,-54.09684
2021-11-29 22:09:00+00:00,276.2048,8.2,12.89,47.84626,-54.09684
2021-11-29 22:19:01+00:00,283.6547,8.2,12.73,47.84626,-54.09684
2021-11-29 22:29:01+00:00,281.6848,8.2,12.73,47.84626,-54.09684
2021-11-29 22:39:01+00:00,269.4747,8.2,12.73,47.84626,-54.09684
2021-11-29 22:49:01+00:00,257.2231,8.22,12.73,47.84626,-54.09684
2021-11-29 22:59:01+00:00,252.468,8.2,12.73,47.84626,-54.09684
2021-11-29 23:09:01+00:00,244.5597,8.2,12.73,47.84626,-54.09684
2021-11-29 23:19:00+00:00,243.1381,8.2,12.65,47.84626,-54.09684
2021-11-29 23:29:00+00:00,243.6248,8.2,12.65,47.84626,-54.09684
2021-11-29 23:39:00+00:00,236.3781,8.2,12.65,47.84626,-54.09684
2021-11-29 23:49:00+00:00,227.7564,8.2,12.65,47.84626,-54.09684
2021-11-29 23:59:00+00:00,232.4731,8.2,12.65,47.84626,-54.09684
